SL-14 DEB, 45339

Orbit data source: Space-Track

SL-14 DEB, 45339 is space debris in LEO originally from a launch on Thu, 15 Aug 1991 UTC launched from the Plesetsk Missile And Space Complex (PKMTR). Debris objects in space refer to the collection of defunct objects orbiting the Earth. Examples of debris include non-operational satellites, rocket bodies, and fragments generated from explosions, collisions, or faulty payload assembly.

Loading next visibility...
Identifier
45339, 1991-056CD
Orbit
LEO
Country
Flag of CISCIS
Related business
Manufacturer
Unknown
Mission
Spacecraft
Bus & Motor
Unknown
Mass
Unknown
Launch date (UTC)
1991-08-15 (34 years ago)
Launch vehicle
Unknown
Launch site
Plesetsk Missile And Space Complex (PKMTR)
Object type
Payload
Rocket body
Debris
Shape & HBR
Unknown shape, 0.1 m
Radar Cross Section
Small (<0.1 m²)

Expand to show TLE details & history
Last TLE update: 19 hours ago

TLE from 19 hours ago
0 SL-14 DEB
1 45339U 91056CD  25340.96384682  .00015277  00000-0  15641-1 0  9995
2 45339  82.5122 167.8198 0101261 206.9411 152.6467 13.74053385284677
Epoch: 2025-12-06T23:07Z
TLE epoch observation values (Epoch: 2025-12-06T23:07:56.365Z)
Latitude
0.00002°
Longitude
104.85091°
Altitude
1,054.335 km
Speed
7.292 km/s
True Right ascension
11h 11m 16s
True Declination
0° 00' 00"
Sunlit
Object was in daylight at epoch
Visualization orbit readout
Latitude
Unknown
Longitude
Unknown
Altitude
Unknown
Speed
Unknown
Apparent Right ascension
Unknown
Apparent Declination
Unknown
Sunlit
N/A
Visualization observer readout
Local Sidereal Time
16:42:40
Azimuth
Unknown
Elevation
Unknown
Doppler factor
Unknown
Orbital elements
Apogee altitude
1,056.753 km
Perigee altitude
907.69 km
Semi-major axis
7,360.358 km
Eccentricity
0.01013
Inclination
82.5122°
RAAN
167.8198°
Arg. of periapsis
206.9411°
True anomaly
153.17392°
Mean anomaly
152.6467°
Eccentric anomaly
152.9109°
Mean motion
3.43712 °/min
Orbital period
104.74 mins
BSTAR
0.015641
Loading maneuver chart data...
Computing Atmospheric mass density...
Loading historical data...
Loading historical data...
Loading historical data...
Loading historical data...
Loading historical data...
Loading historical data...
Loading historical data...

Documentation

Showing up to 5 results
|